Orbital Elements at Epoch 2459200.5 (2020-Dec-17.0) TDB
Reference: JPL 18 (heliocentric ecliptic J2000)
Element | Value | Uncertainty (1-sigma) | Units |
e | .2342721418863958 | 3.6974e-08 | |
a | 2.398294289461344 | 7.7146e-09 | au |
q | 1.836440749395323 | 8.8313e-08 | au |
i | 3.067625627403937 | 4.3179e-06 | deg |
node | 130.4503430147862 | 0.00010377 | deg |
peri | 172.2260740143938 | 0.00010465 | deg |
M | 80.30852698865898 | 1.4027e-05 | deg |
tp | 2458897.870474897344 (2020-Feb-18.37047490) | 5.2326e-05 | TDB |
period | 1356.601012646406 3.71 | 6.5457e-06 1.792e-08 | d yr |
n | .2653691075298003 | 1.2804e-09 | deg/d |
Q | 2.960147829527365 | 9.5219e-09 | au |
|
| | Orbit Determination Parameters
Additional Information
|